Location: Newark
(6.1731°S, 35.7419°E)
Time: 12:31:13
(UTC+00:00)

Tiros 1 despin weight - Visible Passes

Search period start: 17 February 2020 00:00
Search period end: 27 February 2020 00:00
Orbit: 594 x 642 km, 48.2° (Epoch: 16 February)

Date Brightness Start Highest point End Pass type
(mag) Time Alt. Az. Time Alt. Az. Time Alt. Az.
21 Feb ? 17:38:27 10° S 17:39:12 12° SSE 17:39:12 12° SSE visible
22 Feb ? 17:53:36 10° SSW 17:55:27 22° S 17:55:27 22° S visible
23 Feb ? 18:09:51 10° SW 18:11:49 25° SW 18:11:49 25° SW visible
24 Feb ? 16:45:44 10° S 16:49:30 24° SE 16:51:12 19° E visible
24 Feb ? 18:27:03 10° WSW 18:28:18 16° W 18:28:18 16° W visible
25 Feb ? 17:01:26 10° SSW 17:06:03 63° SE 17:07:48 35° ENE visible
26 Feb ? 17:18:03 10° SW 17:22:31 46° NW 17:24:31 28° N visible
